Regional Weather Roundup
Issued by NWS

Home | Current Version | Previous Version | Text Only | Print | Product List | Glossary Off
Versions: 1 2 3 4 5 6 7 8 9 10 11 12 13 14 15 16 17 18 19 20 21 22 23 24 25 26 27

000
ASUS45 KSLC 232110
RWRUT

UTAH REGIONAL WEATHER ROUNDUP
NATIONAL WEATHER SERVICE SALT LAKE CITY UT
300 PM MDT FRI JUN 23 2017

UTZ001>011-023>025-232200-

NORTHERN UTAH

CITY           SKY/WX    TMP DP  RH WIND       PRES   REMARKS
BRIGHAM CITY   SUNNY     80  22  12 CALM      30.15F
HILL AFB       SUNNY     78  32  18 N5        30.18F
LOGAN          SUNNY     80  32  17 VRB5      30.16F
OGDEN          SUNNY     81  29  15 NW8       30.15F
SALT LAKE CITY SUNNY     83  33  16 N10       30.14F
TOOELE VALLEY  SUNNY     79  39  24 N9        30.17F
WENDOVER         N/A     84  23  10 SE10      30.15F
HEBER CITY     SUNNY     82  32  16 SW8       30.18S
WEST JORDAN    SUNNY     80  46  30 N13       30.17F

$$

UTZ011>015-024>027-232200-

CENTRAL/NORTHEAST UTAH

CITY           SKY/WX    TMP DP  RH WIND       PRES   REMARKS
PROVO AIRPORT  SUNNY     82  38  20 NW12      30.15F
MOAB/CANYONLAN SUNNY     96  13   5 NW13      30.02F
DELTA          SUNNY     84  23  10 NW12      30.13F
PRICE          SUNNY     88  23   9 NW12G17   30.14F
RICHFIELD      SUNNY     88  36  15 E9        30.15F
ROOSEVELT      SUNNY     82  30  15 SE3       30.13F
VERNAL         SUNNY     84  34  16 W6        30.13F

$$

UTZ013>016-019>022-027-232200-

SOUTHERN UTAH

CITY           SKY/WX    TMP DP  RH WIND       PRES   REMARKS
BRYCE CANYON   MOSUNNY   84  30  14 NW18G26   30.29S
CEDAR CITY     SUNNY     91  27  10 VRB6      30.14F
MILFORD        SUNNY     90  23   9 N10G23    30.12F
ST GEORGE      CLEAR    103  32   8 CALM      29.88F HX  96
HANKSVILLE     SUNNY     95  27   8 SE3       30.03F
KANAB          SUNNY    100  32   9 NW13G20   30.07F HX  94
BLANDING       SUNNY     93  28  10 NW12G18   30.17F

$$

REGIONAL REPORTS     COLORADO/ARIZONA

CITY           SKY/WX    TMP DP  RH WIND       PRES   REMARKS
CRAIG, CO      SUNNY     79  21  11 SW12G18   30.20F
GRAND JUNCTION SUNNY     90  27  10 SW13      30.04F
RIFLE, CO      SUNNY     89  21   8 N16G24    30.09F
MONTROSE, CO   SUNNY     87  27  11 NW10      30.11F
CORTEZ, CO     SUNNY     94  21   7 W18G26    30.10F
COLORADO CITY    N/A    100  32   9 W3        30.08F HX  94
PAGE, AZ       SUNNY    101  27   7 N7        29.97F HX  94
GRAND CANYON   MOSUNNY   93  21   7 W9G23     30.21F
KINGMAN, AZ    SUNNY    105  42  11 SW8       29.94F HX 100
FLAGSTAFF, AZ  MOSUNNY   88  28  11 SW14G23   30.22F

$$

REGIONAL REPORTS    NEVADA/IDAHO/WYOMING

CITY           SKY/WX    TMP DP  RH WIND       PRES   REMARKS
LAS VEGAS, NV  MOSUNNY  108  19   4 VRB3      29.83F HX  99
ELY, NY        SUNNY     88  32  13 NE15      30.20F
ELKO, NV       SUNNY     84  23  10 S10       30.18F
POCATELLO, ID  SUNNY     75  30  19 NW7       30.21F
BURLEY, ID     SUNNY     75  35  23 VRB5      30.18F
FORT BRIDGER,    N/A     76  30  18 NW15      30.30S
EVANSTON, WY   SUNNY     74  32  21 W13G22    30.29S
ROCK SPRINGS,  SUNNY     73  28  18 NW8G18    30.24F
KEMMERER, WY     N/A     70  25  18 W17G24    30.30S

$$




USA.gov is the U.S. government's official web portal to all federal, state and local government web resources and services.